Location: Aldenham
(51.6667°N, 0.3500°W)
Time: 02:11:56
(UTC+00:00)

Resurs 01 Rocket - Pass Details

Date: 18 November 2025
Orbit: 626 x 637 km, 97.7° (Epoch: 13 December)

Event Time Altitude Azimuth Distance (km) Brightness Sun altitude
Exits shadow 17:30:10 16° 48° (NE) 1,695 3.3 -12.6°
Drops below altitude 10° 17:32:16 10° 20° (NNE) 2,037 3.9 -12.9°
Sets 17:35:13 0° 359° (N) 2,950 4.9 -13.4°
